Location: Biltmore Gardens
(41.6070°N, 83.4666°W)
Time: 05:36:56
(UTC+00:00)

A-11 Canister half - Pass Details

Date: 27 April 2021
Orbit: 1526 x 1683 km, 47.3° (Epoch: 11 May)

Event Time Altitude Azimuth Distance (km) Brightness Sun altitude
Rises 03:26:03 0° 291° (WNW) 4,939 12.5 -27.4°
Reaches altitude 10° 03:30:38 10° 273° (W) 3,941 11.6 -27.9°
Maximum altitude 03:36:35 18° 237° (WSW) 3,346 10.7 -28.5°
Enters shadow 03:40:14 14° 212° (SSW) 3,559 10.6 -28.8°
